Time,TemperatureF,DewpointF,PressureIn,WindDirection,WindDirectionDegrees,WindSpeedMPH,WindSpeedGustMPH,Humidity,HourlyPrecipIn,Conditions,Clouds,dailyrainin,SoftwareType,DateUTC
2013-01-18 00:02:00,28.0,14.0,30.27,South,175,0.0,0.0,55,0.00,,,0.00,,2013-01-18 07:02:00,
2013-01-18 00:11:00,28.0,14.0,30.27,South,175,0.0,0.0,55,0.00,,,0.00,,2013-01-18 07:11:00,
2013-01-18 00:22:00,28.0,14.0,30.27,South,175,0.0,1.0,56,0.00,,,0.00,,2013-01-18 07:22:00,
2013-01-18 00:32:00,28.0,14.0,30.27,South,175,1.0,4.0,55,0.00,,,0.00,,2013-01-18 07:32:00,
2013-01-18 00:42:00,28.0,14.0,30.27,South,175,1.0,4.0,55,0.00,,,0.00,,2013-01-18 07:42:00,
2013-01-18 00:52:00,27.0,13.0,30.27,South,175,0.0,0.0,56,0.00,,,0.00,,2013-01-18 07:52:00,
2013-01-18 01:02:00,28.0,15.0,30.27,South,175,1.0,2.0,57,0.00,,,0.00,,2013-01-18 08:02:00,
2013-01-18 01:11:00,28.0,15.0,30.27,South,175,1.0,2.0,57,0.00,,,0.00,,2013-01-18 08:11:00,
2013-01-18 01:22:00,28.0,14.0,30.27,South,175,0.0,0.0,56,0.00,,,0.00,,2013-01-18 08:22:00,
2013-01-18 01:32:00,28.0,14.0,30.27,South,175,0.0,0.0,56,0.00,,,0.00,,2013-01-18 08:32:00,
2013-01-18 01:42:00,28.0,14.0,30.27,South,175,0.0,0.0,56,0.00,,,0.00,,2013-01-18 08:42:00,
2013-01-18 01:53:00,26.0,13.0,30.28,ESE,114,0.0,4.0,58,0.00,,,0.00,,2013-01-18 08:53:00,
2013-01-18 02:02:00,26.0,14.0,30.28,ESE,114,0.0,0.0,59,0.00,,,0.00,,2013-01-18 09:02:00,
2013-01-18 02:12:00,26.0,14.0,30.28,ESE,114,0.0,0.0,59,0.00,,,0.00,,2013-01-18 09:12:00,
2013-01-18 02:22:00,26.0,14.0,30.28,SE,140,2.0,4.0,61,0.00,,,0.00,,2013-01-18 09:22:00,
2013-01-18 02:32:00,28.0,15.0,30.28,SSE,161,0.0,4.0,57,0.00,,,0.00,,2013-01-18 09:32:00,
2013-01-18 02:42:00,28.0,15.0,30.28,SSE,161,0.0,4.0,57,0.00,,,0.00,,2013-01-18 09:42:00,
2013-01-18 02:52:00,27.0,14.0,30.27,SSE,160,0.0,0.0,57,0.00,,,0.00,,2013-01-18 09:52:00,
2013-01-18 03:02:00,27.0,15.0,30.27,SSE,161,0.0,2.0,59,0.00,,,0.00,,2013-01-18 10:02:00,
2013-01-18 03:12:00,27.0,15.0,30.27,SSE,161,0.0,2.0,59,0.00,,,0.00,,2013-01-18 10:12:00,
2013-01-18 03:22:00,27.0,14.0,30.27,SSE,161,0.0,1.0,58,0.00,,,0.00,,2013-01-18 10:22:00,
2013-01-18 03:32:00,25.0,13.0,30.27,SSE,161,0.0,0.0,61,0.00,,,0.00,,2013-01-18 10:32:00,
2013-01-18 03:42:00,25.0,13.0,30.27,SSE,161,0.0,0.0,61,0.00,,,0.00,,2013-01-18 10:42:00,
2013-01-18 03:52:00,25.0,14.0,30.26,SSE,161,0.0,4.0,62,0.00,,,0.00,,2013-01-18 10:52:00,
2013-01-18 04:02:00,26.0,14.0,30.26,SSE,161,0.0,4.0,60,0.00,,,0.00,,2013-01-18 11:02:00,
2013-01-18 04:11:00,26.0,14.0,30.26,SSE,161,0.0,4.0,60,0.00,,,0.00,,2013-01-18 11:11:00,
2013-01-18 04:22:00,25.0,13.0,30.26,SSE,161,0.0,2.0,61,0.00,,,0.00,,2013-01-18 11:22:00,
2013-01-18 04:32:00,24.0,13.0,30.25,SSE,161,1.0,2.0,63,0.00,,,0.00,,2013-01-18 11:32:00,
2013-01-18 04:42:00,24.0,13.0,30.25,SSE,161,1.0,2.0,63,0.00,,,0.00,,2013-01-18 11:42:00,
2013-01-18 04:53:00,25.0,13.0,30.25,SSE,161,0.0,4.0,61,0.00,,,0.00,,2013-01-18 11:53:00,
2013-01-18 05:02:00,24.0,14.0,30.25,SSE,161,1.0,2.0,64,0.00,,,0.00,,2013-01-18 12:02:00,
2013-01-18 05:11:00,24.0,14.0,30.25,SSE,161,1.0,2.0,64,0.00,,,0.00,,2013-01-18 12:11:00,
2013-01-18 05:22:00,24.0,14.0,30.25,SSE,161,0.0,2.0,64,0.00,,,0.00,,2013-01-18 12:22:00,
2013-01-18 05:32:00,24.0,13.0,30.24,SSE,161,0.0,1.0,62,0.00,,,0.00,,2013-01-18 12:32:00,
2013-01-18 05:42:00,24.0,13.0,30.24,SSE,161,0.0,1.0,62,0.00,,,0.00,,2013-01-18 12:42:00,
2013-01-18 05:52:00,25.0,14.0,30.24,SSE,161,2.0,2.0,62,0.00,,,0.00,,2013-01-18 12:52:00,
2013-01-18 06:02:00,24.0,13.0,30.24,SSE,161,0.0,0.0,62,0.00,,,0.00,,2013-01-18 13:02:00,
2013-01-18 06:12:00,24.0,13.0,30.24,SSE,161,0.0,0.0,62,0.00,,,0.00,,2013-01-18 13:12:00,
2013-01-18 06:22:00,24.0,13.0,30.24,SSE,161,0.0,0.0,62,0.00,,,0.00,,2013-01-18 13:22:00,
2013-01-18 06:32:00,24.0,13.0,30.24,SSE,161,0.0,0.0,62,0.00,,,0.00,,2013-01-18 13:32:00,
2013-01-18 06:42:00,24.0,13.0,30.24,SSE,161,0.0,0.0,62,0.00,,,0.00,,2013-01-18 13:42:00,
2013-01-18 07:03:00,24.0,13.0,30.25,South,179,0.0,4.0,63,0.00,,,0.00,,2013-01-18 14:03:00,
2013-01-18 07:12:00,24.0,13.0,30.25,South,179,0.0,4.0,63,0.00,,,0.00,,2013-01-18 14:12:00,
2013-01-18 07:22:00,24.0,13.0,30.25,South,180,0.0,4.0,63,0.00,,,0.00,,2013-01-18 14:22:00,
2013-01-18 07:33:00,23.0,13.0,30.25,South,180,0.0,0.0,65,0.00,,,0.00,,2013-01-18 14:33:00,
2013-01-18 07:42:00,23.0,13.0,30.25,South,180,0.0,0.0,65,0.00,,,0.00,,2013-01-18 14:42:00,
2013-01-18 07:53:00,24.0,13.0,30.26,South,179,0.0,4.0,63,0.00,,,0.00,,2013-01-18 14:53:00,
2013-01-18 08:02:00,25.0,13.0,30.26,South,180,0.0,2.0,61,0.00,,,0.00,,2013-01-18 15:02:00,
2013-01-18 08:12:00,25.0,13.0,30.26,South,180,0.0,2.0,61,0.00,,,0.00,,2013-01-18 15:12:00,
2013-01-18 08:22:00,25.0,13.0,30.26,South,180,0.0,0.0,61,0.00,,,0.00,,2013-01-18 15:22:00,
2013-01-18 08:32:00,27.0,15.0,30.27,South,179,0.0,2.0,59,0.00,,,0.00,,2013-01-18 15:32:00,
2013-01-18 08:42:00,27.0,15.0,30.27,South,179,0.0,2.0,59,0.00,,,0.00,,2013-01-18 15:42:00,
2013-01-18 08:53:00,30.0,15.0,30.27,South,179,0.0,2.0,54,0.00,,,0.00,,2013-01-18 15:53:00,
2013-01-18 09:02:00,34.0,18.0,30.27,South,180,0.0,0.0,51,0.00,,,0.00,,2013-01-18 16:02:00,
2013-01-18 09:32:00,36.0,17.0,30.28,South,179,0.0,2.0,45,0.00,,,0.00,,2013-01-18 16:32:00,
2013-01-18 09:52:00,37.0,17.0,30.28,SSE,158,0.0,2.0,43,0.00,,,0.00,,2013-01-18 16:52:00,
2013-01-18 10:02:00,38.0,17.0,30.29,SE,131,1.0,4.0,42,0.00,,,0.00,,2013-01-18 17:02:00,
2013-01-18 10:22:00,39.0,17.0,30.29,East,98,1.0,2.0,41,0.00,,,0.00,,2013-01-18 17:22:00,
2013-01-18 10:33:00,40.0,18.0,30.29,NNE,30,1.0,3.0,40,0.00,,,0.00,,2013-01-18 17:33:00,
2013-01-18 10:42:00,40.0,18.0,30.29,NNE,30,1.0,3.0,40,0.00,,,0.00,,2013-01-18 17:42:00,
2013-01-18 10:53:00,41.0,19.0,30.31,NNW,346,3.0,4.0,40,0.00,,,0.00,,2013-01-18 17:53:00,
2013-01-18 11:02:00,41.0,17.0,30.30,NNW,334,2.0,4.0,38,0.00,,,0.00,,2013-01-18 18:02:00,
2013-01-18 11:12:00,41.0,17.0,30.30,NNW,334,2.0,4.0,38,0.00,,,0.00,,2013-01-18 18:12:00,
2013-01-18 11:22:00,42.0,18.0,30.30,NE,49,3.0,5.0,37,0.00,,,0.00,,2013-01-18 18:22:00,
2013-01-18 11:32:00,43.0,17.0,30.29,NE,49,2.0,6.0,35,0.00,,,0.00,,2013-01-18 18:32:00,
2013-01-18 11:42:00,43.0,17.0,30.29,NE,49,2.0,6.0,35,0.00,,,0.00,,2013-01-18 18:42:00,
2013-01-18 11:52:00,44.0,19.0,30.28,NE,37,3.0,5.0,36,0.00,,,0.00,,2013-01-18 18:52:00,
2013-01-18 12:02:00,45.0,18.0,30.27,NE,44,1.0,5.0,34,0.00,,,0.00,,2013-01-18 19:02:00,
2013-01-18 12:12:00,45.0,18.0,30.27,NE,44,1.0,5.0,34,0.00,,,0.00,,2013-01-18 19:12:00,
2013-01-18 12:22:00,47.0,19.0,30.26,NE,45,2.0,5.0,33,0.00,,,0.00,,2013-01-18 19:22:00,
2013-01-18 12:32:00,47.0,19.0,30.25,North,10,1.0,5.0,33,0.00,,,0.00,,2013-01-18 19:32:00,
2013-01-18 12:42:00,47.0,19.0,30.25,North,10,1.0,5.0,33,0.00,,,0.00,,2013-01-18 19:42:00,
2013-01-18 12:52:00,47.0,19.0,30.24,NE,41,2.0,6.0,32,0.00,,,0.00,,2013-01-18 19:52:00,
2013-01-18 13:02:00,48.0,19.0,30.23,NNE,13,4.0,7.0,31,0.00,,,0.00,,2013-01-18 20:02:00,
2013-01-18 13:12:00,48.0,19.0,30.23,NNE,13,4.0,7.0,31,0.00,,,0.00,,2013-01-18 20:12:00,
2013-01-18 13:22:00,49.0,20.0,30.23,NNE,33,3.0,6.0,31,0.00,,,0.00,,2013-01-18 20:22:00,
2013-01-18 13:32:00,49.0,19.0,30.22,East,88,1.0,6.0,30,0.00,,,0.00,,2013-01-18 20:32:00,
2013-01-18 13:42:00,49.0,19.0,30.22,East,88,1.0,6.0,30,0.00,,,0.00,,2013-01-18 20:42:00,
2013-01-18 13:53:00,50.0,19.0,30.22,NNE,16,3.0,6.0,29,0.00,,,0.00,,2013-01-18 20:53:00,
2013-01-18 14:02:00,50.0,19.0,30.21,NE,38,4.0,6.0,29,0.00,,,0.00,,2013-01-18 21:02:00,
2013-01-18 14:11:00,50.0,19.0,30.21,NE,38,4.0,6.0,29,0.00,,,0.00,,2013-01-18 21:11:00,
2013-01-18 14:22:00,49.0,18.0,30.21,NE,53,3.0,9.0,29,0.00,,,0.00,,2013-01-18 21:22:00,
2013-01-18 14:32:00,51.0,20.0,30.21,NE,48,1.0,5.0,29,0.00,,,0.00,,2013-01-18 21:32:00,
2013-01-18 14:42:00,51.0,20.0,30.21,NE,48,1.0,5.0,29,0.00,,,0.00,,2013-01-18 21:42:00,
2013-01-18 14:52:00,52.0,19.0,30.21,ENE,71,4.0,7.0,27,0.00,,,0.00,,2013-01-18 21:52:00,
2013-01-18 15:02:00,52.0,19.0,30.21,NE,37,2.0,7.0,27,0.00,,,0.00,,2013-01-18 22:02:00,
2013-01-18 15:11:00,52.0,19.0,30.21,NE,37,2.0,7.0,27,0.00,,,0.00,,2013-01-18 22:11:00,
2013-01-18 15:22:00,52.0,19.0,30.21,NE,55,4.0,7.0,27,0.00,,,0.00,,2013-01-18 22:22:00,
2013-01-18 15:32:00,52.0,19.0,30.21,NNE,24,5.0,8.0,27,0.00,,,0.00,,2013-01-18 22:32:00,
2013-01-18 15:42:00,52.0,19.0,30.21,NNE,24,5.0,8.0,27,0.00,,,0.00,,2013-01-18 22:42:00,
2013-01-18 15:52:00,52.0,19.0,30.20,NNE,26,3.0,6.0,27,0.00,,,0.00,,2013-01-18 22:52:00,
2013-01-18 16:02:00,52.0,19.0,30.20,NNE,30,1.0,6.0,27,0.00,,,0.00,,2013-01-18 23:02:00,
2013-01-18 16:11:00,52.0,19.0,30.20,NNE,30,1.0,6.0,27,0.00,,,0.00,,2013-01-18 23:11:00,
2013-01-18 16:22:00,52.0,19.0,30.20,NNE,25,2.0,5.0,27,0.00,,,0.00,,2013-01-18 23:22:00,
2013-01-18 16:32:00,52.0,19.0,30.20,NE,44,1.0,4.0,27,0.00,,,0.00,,2013-01-18 23:32:00,
2013-01-18 16:42:00,52.0,19.0,30.20,NE,44,1.0,4.0,27,0.00,,,0.00,,2013-01-18 23:42:00,
2013-01-18 16:52:00,52.0,18.0,30.20,East,84,1.0,5.0,26,0.00,,,0.00,,2013-01-18 23:52:00,
2013-01-18 17:02:00,52.0,19.0,30.20,East,86,2.0,5.0,27,0.00,,,0.00,,2013-01-19 00:02:00,
2013-01-18 17:12:00,52.0,19.0,30.20,East,86,2.0,5.0,27,0.00,,,0.00,,2013-01-19 00:12:00,
2013-01-18 17:22:00,51.0,18.0,30.20,NE,36,2.0,4.0,27,0.00,,,0.00,,2013-01-19 00:22:00,
2013-01-18 17:32:00,51.0,18.0,30.20,NE,44,1.0,3.0,27,0.00,,,0.00,,2013-01-19 00:32:00,
2013-01-18 17:42:00,51.0,18.0,30.20,NE,44,1.0,3.0,27,0.00,,,0.00,,2013-01-19 00:42:00,
2013-01-18 17:53:00,49.0,17.0,30.21,NE,44,0.0,2.0,28,0.00,,,0.00,,2013-01-19 00:53:00,
2013-01-18 18:02:00,47.0,18.0,30.21,NE,45,0.0,3.0,31,0.00,,,0.00,,2013-01-19 01:02:00,
2013-01-18 18:12:00,47.0,18.0,30.21,NE,45,0.0,3.0,31,0.00,,,0.00,,2013-01-19 01:12:00,
2013-01-18 18:22:00,44.0,17.0,30.22,NE,45,0.0,3.0,33,0.00,,,0.00,,2013-01-19 01:22:00,
2013-01-18 18:32:00,42.0,16.0,30.22,ESE,111,1.0,2.0,35,0.00,,,0.00,,2013-01-19 01:32:00,
2013-01-18 18:42:00,42.0,16.0,30.22,ESE,111,1.0,2.0,35,0.00,,,0.00,,2013-01-19 01:42:00,
2013-01-18 18:52:00,40.0,16.0,30.22,ESE,110,0.0,1.0,37,0.00,,,0.00,,2013-01-19 01:52:00,
2013-01-18 19:02:00,39.0,16.0,30.22,ESE,111,0.0,2.0,39,0.00,,,0.00,,2013-01-19 02:02:00,
2013-01-18 19:11:00,39.0,16.0,30.22,ESE,111,0.0,2.0,39,0.00,,,0.00,,2013-01-19 02:11:00,
2013-01-18 19:22:00,37.0,17.0,30.22,ESE,110,0.0,0.0,43,0.00,,,0.00,,2013-01-19 02:22:00,
2013-01-18 19:32:00,35.0,15.0,30.22,ESE,111,0.0,0.0,44,0.00,,,0.00,,2013-01-19 02:32:00,
2013-01-18 19:42:00,35.0,15.0,30.22,ESE,111,0.0,0.0,44,0.00,,,0.00,,2013-01-19 02:42:00,
2013-01-18 19:53:00,34.0,15.0,30.22,ESE,111,0.0,0.0,46,0.00,,,0.00,,2013-01-19 02:53:00,
2013-01-18 20:02:00,33.0,16.0,30.22,ESE,111,0.0,0.0,49,0.00,,,0.00,,2013-01-19 03:02:00,
2013-01-18 20:11:00,33.0,16.0,30.22,ESE,111,0.0,0.0,49,0.00,,,0.00,,2013-01-19 03:11:00,
2013-01-18 20:22:00,33.0,15.0,30.22,ESE,111,0.0,0.0,48,0.00,,,0.00,,2013-01-19 03:22:00,
2013-01-18 20:32:00,34.0,15.0,30.22,ESE,111,0.0,4.0,46,0.00,,,0.00,,2013-01-19 03:32:00,
2013-01-18 20:42:00,34.0,15.0,30.22,ESE,111,0.0,4.0,46,0.00,,,0.00,,2013-01-19 03:42:00,
2013-01-18 20:52:00,33.0,15.0,30.22,ESE,110,0.0,0.0,47,0.00,,,0.00,,2013-01-19 03:52:00,
2013-01-18 21:02:00,32.0,15.0,30.22,ESE,110,0.0,2.0,49,0.00,,,0.00,,2013-01-19 04:02:00,
2013-01-18 21:12:00,32.0,15.0,30.22,ESE,110,0.0,2.0,49,0.00,,,0.00,,2013-01-19 04:12:00,
2013-01-18 21:22:00,31.0,15.0,30.22,ESE,111,2.0,2.0,50,0.00,,,0.00,,2013-01-19 04:22:00,
2013-01-18 21:32:00,32.0,15.0,30.23,ESE,111,0.0,2.0,49,0.00,,,0.00,,2013-01-19 04:32:00,
2013-01-18 21:42:00,32.0,15.0,30.23,ESE,111,0.0,2.0,49,0.00,,,0.00,,2013-01-19 04:42:00,
2013-01-18 21:53:00,33.0,15.0,30.23,South,177,4.0,5.0,48,0.00,,,0.00,,2013-01-19 04:53:00,
2013-01-18 22:03:00,35.0,16.0,30.23,South,177,0.0,2.0,45,0.00,,,0.00,,2013-01-19 05:03:00,
2013-01-18 22:12:00,35.0,16.0,30.23,South,177,0.0,2.0,45,0.00,,,0.00,,2013-01-19 05:12:00,
2013-01-18 22:22:00,33.0,15.0,30.23,South,176,0.0,1.0,47,0.00,,,0.00,,2013-01-19 05:22:00,
2013-01-18 22:32:00,32.0,15.0,30.24,South,172,3.0,4.0,49,0.00,,,0.00,,2013-01-19 05:32:00,
2013-01-18 22:42:00,32.0,15.0,30.24,South,172,3.0,4.0,49,0.00,,,0.00,,2013-01-19 05:42:00,
2013-01-18 22:53:00,32.0,15.0,30.24,SSE,166,2.0,2.0,49,0.00,,,0.00,,2013-01-19 05:53:00,
2013-01-18 23:02:00,31.0,15.0,30.24,SSE,165,0.0,2.0,51,0.00,,,0.00,,2013-01-19 06:02:00,
2013-01-18 23:11:00,31.0,15.0,30.24,SSE,165,0.0,2.0,51,0.00,,,0.00,,2013-01-19 06:11:00,
2013-01-18 23:22:00,31.0,15.0,30.24,SSE,165,0.0,0.0,52,0.00,,,0.00,,2013-01-19 06:22:00,
2013-01-18 23:42:00,30.0,15.0,30.24,SSE,165,0.0,2.0,53,0.00,,,0.00,,2013-01-19 06:42:00,
2013-01-18 23:53:00,31.0,15.0,30.24,SSE,165,0.0,0.0,52,0.00,,,0.00,,2013-01-19 06:53:00,